Погода в Уануко

Перу     9°56′11″S   76°14′19″W
темп.,
°C
ветер,
м/с
пор.,
м/с
влажн.,
%
обл.,
%
осадки,
мм/ч
давл.,
гПа
погр.,
м
21 октября, чт
чт2101:00+10зюз118929 0.3 1018157
04:00+9ю229170 0.0 101739
07:00+11вюв11765 0.0 1018268
10:00+17ссв32497 0.0 10161330
13:00+20св544014 0.1 10111916
16:00+17св6554100 0.0 10111296
19:00+12св2278100 0.1 1016234
22:00+11св1187100 0.1 101947
22 октября, пт
пт2201:00+9ю1189100 0.1 101812
04:00+9ююв118862 0.0 101710
07:00+11ююз117623 0.0 1018333
10:00+18ссв32445 0.0 10151321
13:00+21ссв54346 0.0 10102083
16:00+19св544813 0.1 10081469
19:00+13св338314 0.3 1014206
22:00+11с119127 0.2 101749
23 октября, сб
сб2301:00+11в118540 0.4 101577
04:00+10всв117953 0.1 101557
07:00+12св116948 0.1 1017300
10:00+17ссв32455 0.0 10151421
13:00+21св54354 0.1 10102065
16:00+19св644916 0.1 10091434
19:00+13ссв338234 0.5 1014307
22:00+11с118936 0.1 101837
24 октября, вс
вс2401:00+11ююз118343 0.3 101564
04:00+10ю11855 0.0 101511
07:00+12ююв117082 0.0 1017301
10:00+18ссв324342 0.0 10141319
13:00+22ссв54337 0.0 10092196
16:00+19св654818 0.1 10101566
19:00+13св338098 0.3 1016142
22:00+12ссв118497 0.2 101768
25 октября, пн
пн2501:00+11ссв11925 0.3 101612
04:00+9всв11937 0.0 101510
07:00+12св118333 0.0 1018315
10:00+18св435340 0.3 10151383
13:00+20св654520 0.6 10111920
16:00+17св535039 0.1 10091440
19:00+13сз2272100 2.9 1016364
22:00+12в1172100 0.0 101779